Regional Weather Roundup
Issued by NWS Boston, MA

Home | Current Version | Previous Version | Text Only | Print | Product List | Glossary On
Versions: 1 2 3 4 5 6 7 8 9 10 11 12 13 14 15 16 17 18 19 20 21 22 23 24 25 26 27
000
ASUS41 KBOX 242110
RWRBOX

REGIONAL WEATHER ROUNDUP
NATIONAL WEATHER SERVICE BOSTON/NORTON MA
500 PM EDT THU MAY 24 2018

NOTE:  "FAIR" INDICATES FEW OR NO CLOUDS BELOW 12,000 FEET WITH NO
SIGNIFICANT WEATHER AND/OR OBSTRUCTIONS TO VISIBILITY.

MAZALL-242200-
EASTERN MASSACHUSETTS

CITY           SKY/WX    TMP DP  RH WIND       PRES   REMARKS
BOSTON         FAIR      64  52  64 SE15      30.06F
BEVERLY        FAIR      61  51  70 VRB7G17   30.07F
LAWRENCE       FAIR      71  51  49 VRB6      30.06F
BEDFORD        FAIR      73  50  44 SE9       30.03F
BLUE HILL        N/A     68  51  54 S14       30.06S
NORWOOD        FAIR      73  51  46 SE13      30.05S
MARSHFIELD     FAIR      63  46  55 SE10G18   30.08F
PLYMOUTH       FAIR      64  47  53 S10       30.10S
TAUNTON        FAIR      67  49  52 S9        30.09S
NEW BEDFORD    FAIR      61  47  59 S15       30.10S
$$

MAZALL-242200-
CAPE COD AND THE ISLANDS

CITY           SKY/WX    TMP DP  RH WIND       PRES   REMARKS
FALMOUTH       FAIR      59  46  63 SE15      30.13S
HYANNIS        FAIR      57  41  55 S9G17     30.11S
CHATHAM        FAIR      57  44  62 VRB6G17   30.14S
PROVINCETOWN   FAIR      60  45  57 S15       30.11F
NANTUCKET      FAIR      55  47  74 SE18      30.13F
MARTHAS VNYRD  FAIR      58  43  57 S14       30.13R
$$

MAZALL-242200-
CENTRAL AND WESTERN MASSACHUSETTS

CITY           SKY/WX    TMP DP  RH WIND       PRES   REMARKS
WORCESTER      FAIR      74  36  25 NW6       30.07F
FITCHBURG      FAIR      76  35  22 NW10      30.05F
ORANGE         FAIR      78  33  19 VRB3      30.06F
SPRINGFIELD    MOSUNNY   80  33  18 N8        30.04F
WESTFIELD      FAIR      81  34  18 NW8       30.05F
NORTH ADAMS    FAIR      76  38  25 N8        30.06F
PITTSFIELD     FAIR      75  38  26 CALM      30.08F
$$

RIZALL-242200-
RHODE ISLAND

CITY           SKY/WX    TMP DP  RH WIND       PRES   REMARKS
PROVIDENCE     FAIR      60  47  61 S17G24    30.11S
NEWPORT        FAIR      57  49  74 S14G21    30.12S
BLOCK ISLAND   FAIR      57  52  83 S15       30.13R
SMITHFIELD     FAIR      63  50  62 MISG      30.09R
WESTERLY       PTSUNNY   58  54  86 SE12      30.13S
$$

CTZALL-242200-
CONNECTICUT

CITY           SKY/WX    TMP DP  RH WIND       PRES   REMARKS
BRADLEY INTL   FAIR      81  37  20 VRB3      30.06F
HARTFORD       FAIR      80  42  25 NE7       30.05F
BRIDGEPORT     FAIR      79  40  24 SW10      30.07S
DANBURY        FAIR      80  40  23 W12       30.09F
GROTON         FOG       56  54  93 SE9       30.12S VSB 1
NEW HAVEN      FAIR      80  43  26 VRB7      30.06F
CHESTER        FAIR      73  50  43 SE10      30.10R
MERIDEN        FAIR      81  38  21 CALM      30.06F
WILLIMANTIC    FAIR      80  38  22 W7        30.06F
OXFORD         FAIR      78  39  24 NW8       30.10S
$$

MEZ002-015-021-024-NHZ003-005-008-011-012-014-VTZ005-008-242200-
NORTHERN NEW ENGLAND

CITY           SKY/WX    TMP DP  RH WIND       PRES   REMARKS
PORTLAND ME    FAIR      57  47  69 S17G25    30.06F
BANGOR ME      FAIR      58  41  53 S17G24    30.01F
CONCORD NH     FAIR      76  32  20 NW15      30.03F
MANCHESTER NH  FAIR      80  31  16 NW8       30.02F
NASHUA NH      FAIR      78  34  20 NW13G18   30.04F
PORTSMOUTH NH  MOSUNNY   61  49  64 SE14      30.05F
JAFFREY NH     FAIR      75  33  21 W9        30.07F
KEENE NH       FAIR      79  36  21 NW7       30.05F
BURLINGTON VT  FAIR      74  29  19 N5        30.04F
MT. WASHINGTON MOSUNNY   41  28  60 NW49G56     N/A  WCI  27
$$

NYZ052-076-242200-
EASTERN NEW YORK

CITY           SKY/WX    TMP DP  RH WIND       PRES   REMARKS
ALBANY         FAIR      79  42  26 W12       30.05F
NEW YORK CITY  FAIR      85  39  19 SW7       30.06F
$$

ANZALL-242200-
MARINE OBSERVATIONS

STATION/POSITION TIME  TEMP    WIND        PRES    VSBY  WAVE
                       AIR SEA DIR/SP/G                  HT/PER
                 (UTC) (F)     (DEG/KT/KT) (MB)    (MI)  (FT/S)
BOSTON BUOY      2050   56 56  140/ 17/ 21 1018.3F         2/ 4
BUZZARDS BAY     2000   54     140/ 16/ 18 1020.5R
NANTUCKET SOUND  2050   54 56  130/ 14/ 16 1020.0F         2/ 3
MASS BAY-STELLWA 2004   53 56              1017.6F         3/ 4
ISLE OF SHOALS   2100   54     160/ 23/ 25 1017.6F
S OF BLOCK IS    2043      53                N/A           3/ 8
$$

......................KEY.........................
  SKY/WX - SKY CONDITION/PRESENT WEATHER
  TMP    - TEMPERATURE IN FAHRENHEIT
  DWPT   - DEWPOINT IN FAHRENHEIT
  RH     - RELATIVE HUMIDITY IN PERCENT
  WIND   - DIRECTION AND SPEED IN MPH
  PRES   - MEAN SEA LEVEL PRESSURE IN INCHES OF HG
  WCI    - WIND CHILL INDEX
  VSB    - VISIBILITY IN MILES
  HX     - HEAT INDEX
  TC     - TEMPERATURE IN CELSIUS
  VRB    - VARIABLE WIND DIRECTION
  N/A    - NOT AVAILABLE




USA.gov is the U.S. government's official web portal to all federal, state and local government web resources and services.